Вернуться в каталог

STARLINK-33623

АктивенСвязьVLEO
NORAD 63072·PAYLOAD·🇺🇸 United States

Запущен Feb 21, 2025 с Cape Canaveral Space Force Station

Loading…

Ближайшие Пролёты (ближайшие 24 часа)

TLE

СвежийSource: CelesTrak SupGP

Эпоха: Sep 14, 2026, 15:08 UTC

1 63072C 25035W   26257.63104167  .00046734  00000+0  16932-2 0  2576
2 63072  43.0013 160.3519 0001526 262.3057  47.4576 15.27546188    16

Отслеживайте STARLINK-33623 в реальном времени с AllMySat

Download on the App Store